�N����,����,�~����,�C��,���x,�C��,����,���ϕ���,�ő�u�ԕ���,�ő厞����,���˗�,�I�_���x,�n�����x,�ő啗���N��,DTYPE
"23/07/05","00:10",0.0,24.3,81.0,997.9,357.7,0.7,1.3,340.8,0.00,20.9,24.6,"00:00:16",1
"23/07/05","00:20",0.0,24.1,82.0,997.9,338.8,1.2,2.1,347.7,0.00,20.9,24.7,"00:11:36",1
"23/07/05","00:30",0.0,23.9,82.8,997.9,341.9,1.1,1.7,339.7,0.00,20.8,24.5,"00:28:24",1
"23/07/05","00:40",0.0,23.8,83.5,998.2,336.6,1.3,2.2,339.5,0.00,20.9,24.4,"00:30:02",1
"23/07/05","00:50",0.0,23.8,83.6,997.7,332.2,1.1,1.8,329.5,0.00,20.9,24.5,"00:40:16",1
"23/07/05","01:00",0.0,23.6,84.0,997.9,334.9,1.1,1.4,339.6,0.00,20.8,24.2,"00:53:36",1
"23/07/05","01:10",0.0,23.5,84.3,997.9,309.1,0.8,1.1,341.1,0.00,20.7,24.2,"01:05:36",1
"23/07/05","01:20",0.0,23.5,84.6,997.9,276.0,0.8,1.3,263.6,0.00,20.8,24.4,"01:13:04",1
"23/07/05","01:30",0.0,23.4,84.8,998.2,281.9,1.0,1.7,256.5,0.00,20.7,24.3,"01:21:20",1
"23/07/05","01:40",0.0,23.4,85.0,998.2,318.1,1.1,2.5,322.9,0.00,20.8,24.2,"01:36:16",1
"23/07/05","01:50",0.0,23.3,85.1,998.4,323.5,0.8,1.6,334.9,0.00,20.7,24.2,"01:41:12",1
"23/07/05","02:00",0.0,23.2,85.4,998.2,274.8,1.1,1.8,295.3,0.00,20.7,24.2,"01:58:56",1
"23/07/05","02:10",0.0,23.2,85.6,997.9,283.0,1.2,1.8,297.2,0.00,20.7,24.1,"02:06:32",1
"23/07/05","02:20",0.0,23.1,85.7,997.9,291.1,1.2,1.9,283.5,0.00,20.6,24.0,"02:13:20",1
"23/07/05","02:30",0.0,23.0,85.9,997.7,300.1,1.0,1.8,330.4,0.00,20.6,24.0,"02:24:16",1
"23/07/05","02:40",0.0,22.9,86.1,997.9,285.9,0.8,1.1,305.2,0.00,20.5,24.0,"02:31:12",1
"23/07/05","02:50",0.0,22.7,86.3,997.7,288.3,0.8,1.3,271.6,0.00,20.3,23.7,"02:47:36",1
"23/07/05","03:00",0.0,22.7,86.7,997.4,273.3,0.8,1.3,264.0,0.00,20.4,23.8,"02:56:40",1
"23/07/05","03:10",0.0,22.7,87.0,997.4,286.8,1.0,1.4,337.4,0.00,20.5,24.0,"03:01:44",1
"23/07/05","03:20",0.0,22.7,87.1,997.4,286.8,1.1,1.7,306.9,0.00,20.5,23.7,"03:12:32",1
"23/07/05","03:30",0.0,22.7,87.3,997.2,309.2,1.2,1.9,335.5,0.00,20.5,23.5,"03:26:00",1
"23/07/05","03:40",0.0,22.8,87.4,997.0,321.6,1.2,1.9,334.5,0.00,20.6,23.8,"03:34:00",1
"23/07/05","03:50",0.0,22.6,87.6,997.0,291.5,1.1,1.7,290.6,0.00,20.5,23.9,"03:43:36",1
"23/07/05","04:00",0.0,22.7,87.8,997.0,287.0,1.1,1.4,260.6,0.00,20.6,23.6,"03:50:16",1
"23/07/05","04:10",0.0,22.7,87.8,997.2,296.2,1.1,2.1,325.5,0.00,20.6,23.7,"04:06:00",1
"23/07/05","04:20",0.0,22.8,87.8,997.4,297.2,1.2,2.2,306.2,0.00,20.7,23.7,"04:11:44",1
"23/07/05","04:30",0.0,22.7,87.7,997.2,307.4,0.7,1.2,320.5,0.00,20.6,23.6,"04:25:04",1
"23/07/05","04:40",0.0,22.8,87.8,997.7,292.3,1.0,1.4,306.4,0.00,20.7,23.8,"04:38:40",1
"23/07/05","04:50",0.0,22.9,88.0,997.2,324.7,1.1,1.4,319.5,0.00,20.8,23.7,"04:42:08",1
"23/07/05","05:00",0.0,22.9,88.1,996.7,324.4,1.0,1.7,356.6,0.00,20.9,23.6,"04:51:20",1
"23/07/05","05:10",0.0,22.8,88.5,997.0,294.1,1.2,1.9,321.9,0.00,20.8,23.7,"05:08:00",1
"23/07/05","05:20",0.0,22.7,88.8,997.0,303.3,1.0,1.6,323.7,0.00,20.8,23.5,"05:13:12",1
"23/07/05","05:30",0.0,22.9,89.0,997.0,329.6,1.2,1.7,336.6,0.00,21.0,23.6,"05:29:04",1
"23/07/05","05:40",0.0,22.9,89.1,996.7,311.1,0.8,1.3,322.2,0.00,21.0,23.7,"05:37:20",1
"23/07/05","05:50",0.0,23.0,89.2,997.0,310.8,0.8,1.2,315.7,0.00,21.2,23.5,"05:45:04",1
"23/07/05","06:00",0.0,23.1,89.3,997.0,287.9,0.7,1.1,305.0,0.00,21.3,23.5,"05:50:32",1
"23/07/05","06:10",0.0,23.2,89.4,996.7,309.4,0.8,1.4,326.6,0.00,21.4,23.4,"06:03:04",1
"23/07/05","06:20",0.0,23.3,89.4,997.0,304.5,0.7,1.1,324.0,0.00,21.5,23.5,"06:19:28",1
"23/07/05","06:30",0.0,23.4,89.4,997.0,325.7,1.0,1.4,321.3,0.00,21.6,23.4,"06:23:20",1
"23/07/05","06:40",0.0,23.7,89.4,997.2,326.3,0.8,1.1,329.9,0.00,21.9,23.6,"06:35:36",1
"23/07/05","06:50",0.0,23.7,89.4,997.0,314.6,0.7,1.1,327.0,0.00,21.9,23.6,"06:41:12",1
"23/07/05","07:00",0.0,23.7,89.4,997.2,294.6,0.5,0.8,307.3,0.00,21.9,23.3,"06:54:08",1
"23/07/05","07:10",0.0,23.9,89.5,997.2,311.4,0.7,1.1,325.4,0.00,22.1,23.6,"07:05:04",1
"23/07/05","07:20",0.0,23.9,89.6,997.2,299.5,0.7,1.0,323.6,0.00,22.1,23.4,"07:14:32",1
"23/07/05","07:30",0.0,24.0,89.6,996.7,317.8,0.6,1.2,306.5,0.00,22.2,23.4,"07:22:00",1
"23/07/05","07:40",0.0,24.1,89.5,996.5,322.4,0.6,1.3,341.7,0.00,22.3,23.3,"07:35:44",1
"23/07/05","07:50",0.0,24.4,89.5,997.0,313.4,0.5,1.2,340.4,0.00,22.6,23.7,"07:49:44",1
"23/07/05","08:00",0.0,24.5,89.4,996.3,338.3,1.0,1.2,337.6,0.01,22.7,23.3,"07:50:16",1
"23/07/05","08:10",0.0,24.5,89.4,996.5,323.8,1.0,1.3,336.3,0.01,22.7,23.5,"08:04:16",1
"23/07/05","08:20",0.0,24.7,89.4,996.5,292.3,0.3,0.6,330.5,0.02,22.9,23.3,"08:10:40",1
"23/07/05","08:30",0.0,24.9,89.3,996.0,332.7,1.0,1.8,343.0,0.04,23.1,23.4,"08:28:40",1
"23/07/05","08:40",0.0,25.1,88.9,996.3,331.6,1.1,1.7,323.0,0.06,23.2,23.3,"08:36:00",1
"23/07/05","08:50",0.0,25.2,88.4,996.3,323.0,1.0,1.9,345.7,0.06,23.2,23.4,"08:45:04",1
"23/07/05","09:00",0.0,25.5,87.4,996.3,328.9,1.0,1.6,335.9,0.05,23.3,23.4,"08:51:36",1
"23/07/05","09:10",0.0,25.6,86.7,995.8,293.5,0.8,1.3,310.7,0.04,23.3,23.5,"09:04:08",1
"23/07/05","09:20",0.0,25.8,85.8,996.0,325.6,0.8,1.7,337.7,0.06,23.3,23.4,"09:17:04",1
"23/07/05","09:30",0.0,26.1,84.9,995.8,344.9,0.7,1.3,352.3,0.08,23.4,23.6,"09:26:56",1
"23/07/05","09:40",0.0,26.7,84.1,995.8,261.3,0.1,0.9,333.8,0.10,23.8,23.5,"09:34:00",1
"23/07/05","09:50",0.0,27.0,82.6,995.6,43.2,0.3,1.4,123.9,0.13,23.8,23.6,"09:49:28",1
"23/07/05","10:00",0.0,27.0,81.0,995.1,192.1,1.1,2.2,204.1,0.12,23.5,23.7,"09:58:32",1
"23/07/05","10:10",0.0,26.9,79.9,995.1,200.7,1.6,2.9,176.4,0.10,23.2,23.6,"10:09:52",1
"23/07/05","10:20",0.0,27.2,79.4,995.1,152.7,1.3,2.8,113.8,0.09,23.4,23.5,"10:19:04",1
"23/07/05","10:30",0.0,27.4,78.3,995.3,144.7,1.2,2.6,175.4,0.11,23.3,23.7,"10:29:12",1
"23/07/05","10:40",0.0,27.5,77.0,995.1,165.2,1.8,3.6,199.8,0.12,23.1,23.5,"10:35:12",1
"23/07/05","10:50",0.0,27.7,76.0,994.6,145.1,1.7,4.5,132.4,0.12,23.1,23.6,"10:44:48",1
"23/07/05","11:00",0.0,27.6,75.4,994.8,145.3,1.8,4.3,158.2,0.11,22.9,23.8,"10:54:32",1
"23/07/05","11:10",0.0,27.6,75.0,994.4,128.8,1.5,3.4,145.5,0.10,22.8,23.6,"11:04:56",1
"23/07/05","11:20",0.0,27.4,74.8,994.8,143.8,1.6,5.0,116.9,0.06,22.6,23.7,"11:19:20",1
"23/07/05","11:30",0.0,27.3,74.9,994.8,143.9,1.2,2.8,120.0,0.05,22.5,23.6,"11:21:36",1
"23/07/05","11:40",0.0,27.2,74.7,994.6,137.0,1.2,4.0,42.6,0.05,22.4,23.4,"11:39:04",1
"23/07/05","11:50",0.0,27.3,74.2,994.4,132.1,1.5,3.2,169.9,0.06,22.3,23.5,"11:49:36",1
"23/07/05","12:00",0.0,27.4,73.7,994.4,132.4,1.3,3.3,159.3,0.06,22.3,23.7,"11:59:04",1
"23/07/05","12:10",0.0,27.5,73.2,994.4,130.7,1.6,3.7,152.1,0.08,22.3,23.7,"12:06:08",1
"23/07/05","12:20",0.0,27.7,72.8,994.8,132.6,1.2,3.3,106.5,0.08,22.4,23.7,"12:12:40",1
"23/07/05","12:30",0.0,27.8,72.4,994.6,107.5,1.0,2.8,120.8,0.08,22.4,23.8,"12:29:20",1
"23/07/05","12:40",0.0,27.9,72.0,994.8,90.5,0.8,2.2,63.9,0.07,22.4,23.7,"12:31:28",1
"23/07/05","12:50",0.0,28.3,72.4,993.9,83.2,0.7,1.7,113.0,0.11,22.9,23.6,"12:43:44",1
"23/07/05","13:00",0.0,28.3,72.9,993.9,55.7,0.7,2.4,138.2,0.13,23.0,23.6,"12:59:44",1
"23/07/05","13:10",0.0,28.0,74.9,994.4,88.2,1.0,2.9,98.4,0.12,23.2,23.5,"13:04:32",1
"23/07/05","13:20",0.2,27.4,76.8,994.4,99.6,1.0,2.5,79.0,0.11,23.0,23.8,"13:11:28",1
"23/07/05","13:30",0.0,27.2,78.9,994.1,113.5,0.8,2.2,114.3,0.13,23.3,23.7,"13:21:12",1
"23/07/05","13:40",0.0,26.9,80.0,993.9,103.0,0.8,2.0,109.0,0.11,23.2,23.8,"13:31:52",1
"23/07/05","13:50",0.0,26.8,80.4,994.4,80.9,0.8,2.4,116.0,0.09,23.2,23.8,"13:43:54",1
"23/07/05","14:00",0.2,26.2,81.1,994.1,120.7,1.2,3.5,142.8,0.10,22.7,23.7,"13:54:00",1
"23/07/05","14:10",0.0,26.0,82.1,994.4,126.5,1.1,3.2,115.6,0.07,22.7,23.6,"14:00:16",1
"23/07/05","14:20",0.0,25.8,82.8,994.6,138.5,1.1,2.6,133.4,0.04,22.7,23.9,"14:17:12",1
"23/07/05","14:30",0.0,25.4,82.7,994.4,155.3,2.0,4.7,153.2,0.04,22.3,23.6,"14:24:32",1
"23/07/05","14:40",0.2,25.1,83.4,994.1,156.7,1.8,4.0,131.8,0.03,22.1,23.8,"14:30:02",1
"23/07/05","14:50",0.2,24.8,84.4,994.6,159.8,1.6,3.4,173.0,0.02,22.0,23.9,"14:42:40",1
"23/07/05","15:00",0.6,24.7,85.5,994.6,151.3,1.3,3.4,176.5,0.05,22.1,23.7,"14:50:32",1
"23/07/05","15:10",0.4,24.6,86.3,994.4,77.6,0.7,1.7,99.2,0.04,22.2,23.9,"15:01:20",1
"23/07/05","15:20",0.2,24.3,87.1,994.1,55.5,0.6,1.4,98.3,0.02,22.1,23.7,"15:10:16",1
"23/07/05","15:30",0.4,24.1,87.8,994.6,13.0,0.3,1.7,102.0,0.02,22.0,23.7,"15:25:04",1
"23/07/05","15:40",0.2,24.0,88.5,994.4,50.3,0.7,1.4,332.4,0.03,22.0,23.7,"15:33:04",1
"23/07/05","15:50",0.4,23.9,89.1,994.4,62.7,0.6,1.9,1.9,0.04,22.0,23.8,"15:46:32",1
"23/07/05","16:00",0.2,23.6,89.6,994.1,50.5,0.6,1.7,52.5,0.03,21.8,23.7,"15:57:20",1
"23/07/05","16:10",0.2,23.6,90.2,994.4,91.4,0.5,1.7,82.7,0.03,21.9,23.7,"16:09:20",1
"23/07/05","16:20",0.2,23.6,90.6,994.4,46.0,0.6,2.0,103.3,0.05,22.0,23.7,"16:17:12",1
"23/07/05","16:30",0.2,23.4,90.9,994.4,58.7,0.6,1.6,114.6,0.03,21.9,23.9,"16:25:04",1
"23/07/05","16:40",0.2,23.2,91.1,994.1,46.7,0.5,1.6,20.6,0.01,21.7,23.6,"16:39:20",1
"23/07/05","16:50",0.0,23.1,91.4,994.1,3.4,0.6,2.0,3.5,0.01,21.7,23.7,"16:44:16",1
"23/07/05","17:00",0.4,23.0,91.7,993.9,83.2,0.6,1.6,355.6,0.03,21.6,23.7,"16:52:32",1
"23/07/05","17:10",0.2,23.0,91.8,993.7,89.1,0.3,1.3,144.8,0.02,21.6,23.6,"17:05:52",1
"23/07/05","17:20",0.2,22.9,91.9,993.9,310.3,0.5,0.9,348.1,0.01,21.6,23.7,"17:10:16",1
"23/07/05","17:30",0.4,22.9,92.1,993.9,13.9,0.3,1.7,12.4,0.00,21.6,23.8,"17:26:48",1
"23/07/05","17:40",0.4,22.9,92.3,993.7,7.0,0.2,0.6,354.7,0.00,21.6,23.6,"17:33:28",1
"23/07/05","17:50",0.6,22.8,92.5,993.7,353.2,0.8,1.4,353.7,0.00,21.6,23.7,"17:40:24",1
"23/07/05","18:00",0.6,22.8,92.7,993.7,314.7,0.6,1.0,345.4,0.00,21.6,23.7,"17:50:16",1
"23/07/05","18:10",0.4,22.8,92.8,993.9,320.8,0.3,1.1,344.7,0.01,21.6,23.7,"18:04:40",1
"23/07/05","18:20",0.0,22.9,92.9,993.9,278.3,0.3,1.0,298.1,0.01,21.7,23.5,"18:18:56",1
"23/07/05","18:30",0.0,22.8,93.0,993.4,264.8,0.6,1.2,238.7,0.00,21.6,23.7,"18:28:32",1
"23/07/05","18:40",3.0,22.8,93.2,993.7,285.0,1.1,2.2,342.0,0.00,21.7,23.8,"18:38:48",1
"23/07/05","18:50",0.8,22.6,93.5,994.1,309.3,1.0,1.9,325.6,0.00,21.5,23.6,"18:43:20",1
"23/07/05","19:00",0.6,22.6,93.6,993.9,211.7,0.3,1.4,248.7,0.00,21.6,23.3,"18:51:28",1
"23/07/05","19:10",0.0,22.7,93.7,994.4,258.5,0.5,1.0,266.8,0.00,21.7,23.6,"19:02:00",1
"23/07/05","19:20",0.2,22.8,93.8,994.1,230.1,0.8,1.4,210.4,0.00,21.8,23.5,"19:14:40",1
"23/07/05","19:30",0.0,22.8,93.9,994.4,242.7,0.3,1.0,227.9,0.00,21.8,23.5,"19:22:32",1
"23/07/05","19:40",0.0,23.0,94.0,994.1,283.0,0.6,1.2,242.1,0.00,22.0,23.5,"19:31:28",1
"23/07/05","19:50",0.0,22.9,94.1,994.1,337.3,1.0,1.9,334.1,0.00,21.9,23.4,"19:45:12",1
"23/07/05","20:00",0.0,22.8,94.3,993.7,298.5,0.8,1.6,299.5,0.00,21.9,23.4,"19:50:32",1
"23/07/05","20:10",0.8,22.9,94.4,993.9,279.1,0.8,1.8,338.7,0.00,22.0,23.4,"20:00:32",1
"23/07/05","20:20",3.2,22.8,94.5,993.9,255.6,0.7,2.4,238.9,0.00,21.9,23.4,"20:12:32",1
"23/07/05","20:30",0.2,22.7,94.6,993.9,238.5,0.5,1.1,262.2,0.00,21.8,23.4,"20:20:08",1
"23/07/05","20:40",0.0,22.7,94.7,993.7,253.6,0.6,1.1,237.6,0.00,21.8,23.4,"20:35:20",1
"23/07/05","20:50",0.0,22.8,94.8,994.1,269.1,0.6,1.3,248.0,0.00,22.0,23.5,"20:46:16",1
"23/07/05","21:00",0.0,22.9,94.8,994.4,320.2,0.8,1.6,334.5,0.00,22.1,23.4,"20:58:16",1
"23/07/05","21:10",0.0,22.9,94.9,993.9,336.3,0.7,1.6,349.3,0.00,22.1,23.3,"21:06:48",1
"23/07/05","21:20",0.0,22.9,95.0,994.4,338.5,0.8,1.7,343.7,0.00,22.1,23.3,"21:11:12",1
"23/07/05","21:30",0.2,22.9,95.1,994.4,291.8,0.6,1.2,250.5,0.00,22.1,23.2,"21:24:24",1
"23/07/05","21:40",0.0,22.9,95.2,994.6,233.7,0.5,1.1,304.4,0.00,22.1,23.4,"21:32:24",1
"23/07/05","21:50",0.0,23.0,95.2,994.6,279.1,0.6,1.1,325.1,0.00,22.2,23.5,"21:42:24",1
"23/07/05","22:00",0.0,23.0,95.3,994.4,314.5,0.6,1.2,304.6,0.00,22.2,23.3,"21:56:32",1
"23/07/05","22:10",0.0,23.0,95.4,994.6,299.1,0.7,1.6,341.7,0.00,22.3,23.3,"22:07:52",1
"23/07/05","22:20",0.0,23.0,95.4,994.8,311.2,0.6,1.1,304.2,0.00,22.3,23.1,"22:17:36",1
"23/07/05","22:30",0.0,23.1,95.5,994.8,316.1,0.5,1.0,0.8,0.00,22.4,23.4,"22:29:28",1
"23/07/05","22:40",0.0,23.2,95.5,995.1,325.1,0.6,1.1,339.8,0.00,22.5,23.3,"22:30:56",1
"23/07/05","22:50",0.0,23.1,95.5,995.1,285.4,0.3,0.8,261.7,0.00,22.4,23.2,"22:48:00",1
"23/07/05","23:00",0.0,23.2,95.6,995.1,179.1,0.3,1.2,242.9,0.00,22.5,23.3,"22:58:32",1
"23/07/05","23:10",0.0,23.3,95.6,995.3,307.1,0.6,0.9,261.2,0.00,22.6,23.3,"23:00:24",1
"23/07/05","23:20",0.0,23.2,95.6,995.1,307.7,0.5,1.2,350.0,0.00,22.5,23.4,"23:11:20",1
"23/07/05","23:30",0.0,23.2,95.7,995.1,302.7,0.5,1.0,346.8,0.00,22.5,23.4,"23:28:56",1
"23/07/05","23:40",0.0,23.2,95.8,995.1,333.1,0.7,1.3,327.1,0.00,22.5,23.3,"23:31:12",1
"23/07/05","23:50",0.0,23.2,95.8,995.3,341.2,0.7,1.4,341.2,0.00,22.5,23.5,"23:47:36",1
"23/07/05","24:00",0.0,23.1,95.9,995.3,281.1,0.6,1.1,346.5,0.00,22.4,23.2,"23:50:40",1
